Home > Time Zones > World Clock > Weather > Togo > Lome > Past weeks

Flag for Togo Weather past 2 weeks in Lome, Togo

Now
77 °F

Partly cloudy.


Feels Like: 78 °F
Forecast: N/A
Wind: 3 mph from North

Location: Lome Airport

Current Time: Oct 25, 2014 at 9:37:24 PM

Latest Report: Oct 25, 2014 at 8:00 PM


Visibility: 5 mi

Pressure: 29.89 "Hg

Humidity: 94%

Dew point: 75 °F

Location of LomeLocation

Historic Weather in Lome — Graph

°F

Lome temperature yesterday

Maximum temperature yesterday: 84 °F (at 4:00 PM)
Minimum temperature yesterday: 77 °F (at 5:00 AM)
Average temperature yesterday: 80 °F

Past Weeks' High & Low Weather Summary

 TemperatureHumidityPressure
High90 °F (Oct 23, 11:00 AM)100% (Oct 11, 8:00 AM)30.01 "Hg (Oct 11, 8:00 AM)
Low72 °F (Oct 11, 9:00 AM)59% (Oct 18, 2:00 PM)29.80 "Hg (Oct 17, 3:00 PM)
Average80 °F86%29.91 "Hg
* Reported Oct 10 8:00 PM — Oct 25 8:00 PM, Lome, Weather by CustomWeather, © 2014

Note: Actual official high and low records may vary slightly from our data, if they occured in-between our weather recording intervals... More about our weather records

Advertising

Lome weather history for previous 24 hours

 ConditionsComfort  
Time TempWeatherWind HumidityBarometerVisibility
8:00 PM
Oct 25
77 °FPartly cloudy.3 mph94%29.89 "Hg5 mi
7:00 PM79 °FLight rain. Partly cloudy.7 mph89%29.86 "Hg5 mi
6:00 PM77 °FPartly cloudy.7 mph94%29.86 "Hg5 mi
5:00 PM75 °FThunderstorms. Broken clouds.6 mph100%29.86 "Hg5 mi
4:00 PM75 °FThunderstorms. Mostly cloudy.13 mph100%29.83 "Hg4 mi
3:00 PM86 °FPassing clouds.15 mph70%29.80 "HgN/A
2:00 PM88 °FPassing clouds.14 mph70%29.80 "HgN/A
1:00 PM88 °FPassing clouds.14 mph70%29.83 "HgN/A
12:00 PM88 °FPassing clouds.10 mph70%29.86 "HgN/A
11:00 AM88 °FScattered clouds.12 mph70%29.89 "HgN/A
10:00 AM86 °FScattered clouds.9 mph75%29.92 "HgN/A
9:00 AM82 °FScattered clouds.5 mph84%29.92 "HgN/A
8:00 AM81 °FPassing clouds.7 mph89%29.92 "HgN/A
7:00 AM79 °FPassing clouds.3 mph94%29.89 "HgN/A
6:00 AM77 °FScattered clouds.2 mph100%29.89 "Hg5 mi
5:00 AM77 °FPassing clouds.2 mph100%29.86 "Hg5 mi
4:00 AM79 °FRain. Passing clouds.2 mph89%29.86 "Hg3 mi
3:55 AM79 °FRain. Passing clouds.3 mph94%29.86 "Hg2 mi
3:00 AM79 °FThunderstorms. Passing clouds.3 mph89%29.86 "HgN/A
2:00 AM79 °FThunderstorms. Passing clouds.6 mph94%29.86 "HgN/A
1:00 AM79 °FPassing clouds.5 mph89%29.86 "HgN/A
12:00 AM79 °FPassing clouds.3 mph89%29.89 "HgN/A
11:00 PM
Oct 24
81 °FPassing clouds.7 mph89%29.92 "HgN/A
10:00 PM81 °FPassing clouds.8 mph89%29.92 "HgN/A
9:00 PM81 °FPassing clouds.10 mph84%29.89 "HgN/A
Weather by CustomWeather, © 2014

See weather overviewHow to use our weather pages